Theta_e
297 296 296 296 297 297 297 297 297 298 299 298 297 297 297 297 297 296 295 296 297 298 298 296 297 298 297 296 301 292 294 292 294 297 298 297 298 298 299 299 298 299 300 299 300 302 301 298 301 305 303 298 298 298
296 296 296 296 296 296 296 296 296 297 297 297 298 298 296 297 297 297 296 295 295 295 295 295 295 296 297 297 298 292 297 292 295 296 295 297 298 295 297 301 293 301 301 301 300 300 298 296 300 298 297 298 298 297
295 295 295 295 295 296 296 296 296 296 296 296 298 298 298 298 297 297 297 297 294 294 295 293 295 293 293 293 294 296 292 293 293 293 295 297 298 297 298 297 297 295 294 300 299 301 298 298 296 296 296 296 295 295
294 295 295 295 296 296 297 297 298 298 298 298 298 298 298 298 298 298 297 297 295 294 296 294 291 290 289 290 290 293 291 290 291 293 296 296 298 296 298 295 296 295 294 297 297 297 297 299 296 294 294 293 293 293
294 294 295 295 295 296 296 296 296 296 296 296 297 297 298 298 298 298 297 297 296 296 296 296 290 285 286 286 287 289 290 292 293 294 296 298 295 294 292 291 295 292 296 298 299 289 292 295 292 287 289 292 291 291
294 295 295 294 294 295 295 295 295 295 295 296 295 296 297 297 298 297 294 293 293 293 295 295 287 284 284 286 288 289 290 292 294 295 296 295 291 297 299 298 287 283 282 282 287 278 282 285 285 280 282 283 283 285
293 293 293 293 293 294 294 295 295 295 295 296 297 297 297 296 297 295 295 293 293 292 295 293 294 284 282 285 287 289 290 292 293 294 294 294 293 294 297 296 281 279 277 277 273 276 285 281 281 276 278 279 279 280
292 292 292 292 293 294 297 296 297 296 296 297 297 297 296 296 297 295 294 293 293 293 293 294 293 288 283 287 289 286 289 291 292 294 291 292 291 292 293 281 277 276 276 277 275 272 273 273 274 276 275 276 279 279
292 292 292 292 293 294 295 295 295 295 297 297 298 297 296 294 292 290 290 291 291 293 293 293 293 294 284 285 285 287 288 290 289 291 291 291 291 287 277 276 275 274 273 272 271 273 273 274 274 273 273 273 274 274
292 292 292 292 291 292 294 294 295 295 296 298 297 294 294 290 290 290 290 291 292 291 292 292 285 291 286 286 288 288 287 290 291 289 289 291 282 276 275 274 273 271 270 268 271 275 271 272 271 270 270 270 271 272
291 292 292 292 291 292 294 294 295 297 296 296 293 293 289 289 289 284 289 289 287 290 289 287 285 288 284 288 288 288 288 288 290 288 290 289 283 277 274 273 271 270 269 268 267 267 267 267 268 268 269 270 271 271
291 291 291 291 292 292 294 295 297 297 296 295 293 288 288 285 285 287 286 285 287 291 287 288 286 285 285 284 287 287 288 288 290 286 288 286 279 275 274 273 272 270 269 269 268 268 268 268 267 266 267 268 269 269
291 291 291 291 291 291 293 295 296 296 293 292 289 287 286 284 286 288 289 289 288 287 285 284 287 285 284 285 286 287 287 288 285 287 284 279 276 275 273 273 272 271 270 270 270 269 269 269 269 269 269 269 269 270
290 290 290 291 289 289 292 292 293 293 293 292 291 289 288 286 286 287 289 289 285 285 284 285 285 286 284 286 284 287 285 285 286 287 282 277 274 273 273 272 272 272 271 271 271 271 271 271 270 270 270 269 270 270
290 290 290 289 288 289 290 292 291 292 292 293 290 292 286 287 284 284 282 285 283 283 284 284 283 284 284 285 283 284 285 286 283 283 278 275 273 272 272 272 271 271 270 271 271 271 271 271 271 271 270 270 270 270
290 288 289 287 288 289 290 290 290 292 289 289 288 288 286 288 289 286 287 287 281 282 281 282 282 284 285 284 286 284 286 285 280 276 273 273 272 271 271 271 271 270 270 269 269 269 269 269 270 270 270 270 270 270
289 287 287 287 288 288 289 289 290 292 292 290 288 286 288 288 286 284 282 281 279 285 288 283 286 287 280 282 281 276 278 275 274 273 271 270 270 270 270 270 270 269 269 268 267 267 268 268 268 269 269 269 270 270
287 285 285 287 286 288 290 289 289 289 289 284 287 283 279 275 278 276 275 275 279 284 282 285 280 282 281 283 277 272 271 271 270 270 269 268 268 268 269 269 268 268 268 267 267 266 266 266 267 268 268 268 269 269
285 285 285 284 285 286 288 284 282 287 281 281 281 280 277 275 273 272 272 272 274 273 276 276 273 273 272 269 270 269 269 268 269 269 268 267 266 267 267 267 268 267 267 267 267 267 266 265 265 266 267 267 267 267
283 283 284 283 284 286 284 282 281 282 281 279 277 277 275 274 273 272 270 270 271 270 268 269 268 267 267 266 266 267 267 267 268 270 269 267 266 266 265 266 266 266 266 266 266 267 265 265 264 264 266 266 265 265
282 282 281 283 283 280 277 275 277 278 278 276 275 276 274 273 270 270 269 269 268 267 268 267 266 265 265 264 264 265 265 266 266 268 268 268 266 265 265 264 265 265 265 264 264 264 264 264 264 263 263 263 264 263
280 280 280 280 278 277 274 274 276 277 277 274 274 272 270 269 269 268 269 268 267 267 266 266 266 266 265 264 263 263 263 264 264 264 266 265 265 264 264 263 263 264 263 262 262 262 262 263 264 262 261 262 262 263
278 278 276 273 274 273 273 273 273 272 274 273 270 270 268 268 268 268 267 267 267 266 266 265 265 265 265 264 264 263 262 262 262 263 262 262 264 263 263 262 262 262 262 261 261 261 261 263 262 262 261 261 261 262
275 268 265 264 265 268 265 267 267 269 269 270 268 268 268 269 267 266 266 267 266 266 267 266 266 267 266 265 264 263 261 260 260 261 261 261 261 260 260 261 261 260 260 260 260 260 260 260 261 260 260 260 260 261
272 265 264 264 260 265 264 264 263 266 265 263 264 265 268 267 265 265 266 266 266 265 265 265 266 264 264 264 263 262 260 259 258 258 260 260 259 259 260 260 260 260 260 260 259 259 260 260 260 260 260 260 261 262
265 261 263 259 261 264 261 263 260 261 259 261 262 263 263 263 263 263 265 264 264 264 263 263 262 263 263 261 260 260 260 259 259 258 259 259 258 257 257 257 258 260 260 260 259 259 259 259 259 260 260 261 261 261
265 262 258 261 261 262 262 260 260 259 256 259 257 258 260 261 263 264 263 262 263 262 262 262 261 260 260 260 261 261 260 260 258 258 259 260 260 259 259 258 258 260 260 260 260 260 259 259 259 260 260 260 261 261
256 256 263 256 256 254 254 253 254 256 255 257 257 258 260 262 263 260 261 262 262 262 262 262 262 261 261 261 261 260 260 260 260 260 260 260 260 260 260 260 259 259 260 260 260 260 260 260 260 260 260 260 260 260
258 257 259 255 252 253 253 255 256 255 257 254 257 258 257 259 259 260 261 262 262 263 263 262 262 262 261 261 261 260 259 259 259 254 254 257 257 260 260 260 261 261 261 261 261 261 260 261 262 263 260 259 258 258
257 253 256 250 256 259 256 253 253 250 254 254 255 258 259 259 261 262 262 262 262 263 262 262 262 261 260 259 259 260 260 260 259 259 255 256 258 259 260 261 261 262 261 260 260 260 260 260 259 259 258 258 257 256
252 252 255 254 257 253 250 250 252 254 251 250 250 253 256 254 262 263 263 263 263 263 262 262 262 262 260 260 259 258 258 260 260 260 259 259 260 260 261 262 262 261 260 260 260 259 258 258 257 257 256 256 256 256
253 253 257 259 257 250 249 249 249 252 250 253 254 249 253 256 259 261 263 263 263 262 263 262 262 261 261 260 260 259 258 259 260 261 260 261 261 262 263 263 261 260 260 259 258 257 257 256 256 256 255 255 255 255
247 248 248 252 254 256 252 252 253 254 253 254 255 253 253 259 262 262 264 264 263 263 263 262 261 261 260 260 260 260 261 261 261 260 261 262 263 264 264 263 261 260 259 258 257 257 257 256 256 256 256 255 255 255
Wind_Speed
13 14 14 14 15 16 16 16 16 14 13 12 11 13 12 11 9 6 6 7 5 3 6 6 5 7 5 4 9 4 2 3 3 6 5 4 5 5 3 2 5 6 6 4 5 5 8 4 2 3 4 3 4 4
14 14 15 15 16 17 16 16 16 16 16 16 14 13 11 10 9 6 6 7 8 3 4 12 16 18 16 13 3 6 1 4 4 4 5 3 4 2 5 3 0 4 4 2 7 3 2 2 3 2 3 4 1 3
15 16 16 16 16 17 18 18 17 17 16 16 15 15 15 14 13 10 13 11 4 2 5 2 7 7 11 17 19 7 3 4 5 3 3 3 5 4 5 6 4 5 4 3 1 3 5 4 3 4 4 7 4 4
16 17 17 18 18 20 20 20 20 19 19 19 19 17 17 16 15 14 11 12 7 2 4 3 5 4 5 6 9 14 3 4 3 4 3 4 3 5 2 1 3 1 6 4 5 8 6 6 5 11 9 5 5 2
18 18 19 20 21 22 23 23 23 23 23 22 21 20 19 18 16 13 13 14 16 4 3 5 3 2 5 7 8 9 7 4 3 4 5 4 2 3 2 1 3 3 2 4 4 6 4 5 10 12 10 7 7 4
18 19 20 21 23 23 24 25 25 25 24 24 23 21 19 18 14 6 1 3 7 9 2 3 2 3 6 7 4 7 5 4 3 3 3 3 1 2 3 2 5 7 7 4 4 10 8 12 4 12 9 10 9 8
19 20 22 23 24 26 26 27 27 27 26 25 24 22 18 17 12 4 3 5 10 4 2 4 3 2 3 3 2 2 1 1 2 2 3 2 2 3 2 2 5 8 9 9 4 11 1 6 6 14 10 9 11 8
21 23 23 24 26 25 26 27 26 26 24 23 23 18 14 9 11 6 7 9 13 3 2 3 3 1 3 2 1 2 1 0 2 2 1 1 2 1 1 4 9 10 12 4 10 8 7 10 8 8 9 8 6 6
22 25 26 27 27 25 27 28 28 28 25 24 23 7 4 3 1 1 1 1 5 4 2 2 2 3 2 1 2 0 1 1 1 1 0 1 1 3 4 9 10 10 7 12 16 9 7 5 8 10 10 9 8 7
24 26 27 28 29 31 29 29 33 31 28 10 4 1 1 1 0 1 2 1 1 1 2 2 1 2 1 1 1 1 1 1 1 1 1 1 3 4 6 5 6 8 8 8 6 6 9 7 10 11 8 8 8 8
26 27 29 29 31 29 30 35 34 24 11 2 1 1 3 2 1 2 1 1 1 2 2 0 2 2 1 1 2 1 1 1 1 1 1 2 3 3 8 7 6 7 7 5 3 6 6 7 9 10 10 9 12 12
27 28 28 28 25 29 34 30 23 5 3 4 3 4 2 3 2 1 1 1 3 3 2 2 1 1 0 1 1 0 1 1 0 1 0 2 2 5 7 7 7 6 8 7 6 5 7 7 8 7 7 9 11 11
27 29 29 25 19 25 30 24 20 9 4 1 2 2 1 2 1 4 4 2 2 3 3 2 1 0 1 1 0 1 1 1 0 1 2 2 4 5 6 5 5 7 7 7 8 8 8 8 9 10 10 12 12 13
29 30 29 12 25 26 24 20 15 13 5 1 0 4 2 2 4 4 2 0 1 1 3 2 2 1 0 1 1 1 1 1 1 1 2 2 5 5 5 5 5 7 6 6 8 10 10 10 10 12 14 15 14 14
30 32 15 15 31 26 22 21 18 11 3 2 1 4 4 3 2 2 1 2 1 2 2 2 2 1 1 1 1 1 0 2 2 2 2 3 4 4 5 6 6 6 6 6 9 10 11 11 11 12 15 16 16 16
29 20 7 30 28 25 24 23 11 4 2 2 2 2 1 1 1 2 2 1 2 2 2 2 2 1 1 1 2 1 1 1 2 2 2 3 4 5 5 5 5 7 7 8 9 10 11 12 12 11 12 16 16 16
23 5 28 28 25 26 21 7 2 3 3 2 2 1 2 1 3 3 4 4 4 1 1 2 3 2 2 2 2 3 2 2 3 3 3 5 5 6 5 6 7 7 8 9 10 11 11 10 11 13 13 14 13 14
18 29 25 20 21 19 4 2 2 2 2 3 2 3 3 4 4 3 4 4 4 2 1 1 2 2 2 1 2 2 3 3 3 3 3 4 6 7 7 7 7 7 7 8 9 10 12 13 12 12 12 13 11 14
26 20 13 16 16 5 2 3 4 3 2 2 2 2 3 3 4 5 5 6 3 5 2 3 6 3 3 3 3 3 3 3 2 2 3 6 7 8 7 6 6 7 7 7 8 8 9 11 10 11 11 11 10 12
15 11 14 18 9 1 3 2 5 3 3 2 2 3 2 2 3 4 7 6 4 3 6 5 4 2 2 2 2 2 3 4 1 1 1 3 6 6 8 7 6 5 5 6 7 8 7 7 10 12 11 11 10 11
7 9 13 10 3 6 3 2 2 1 1 2 2 2 2 2 4 5 5 5 4 4 3 3 3 2 5 5 5 5 7 8 4 4 3 2 5 5 6 6 6 5 5 6 6 7 8 8 7 9 9 9 9 8
6 10 5 6 5 4 3 6 1 3 2 1 2 3 3 3 3 4 3 6 3 3 2 2 1 2 3 4 7 9 9 8 9 8 9 8 3 5 6 7 6 4 5 5 6 6 6 8 5 9 9 9 9 9
5 4 5 11 4 5 2 9 4 4 3 2 2 3 3 2 2 2 3 3 2 4 3 3 3 4 4 3 5 9 13 11 8 8 8 7 5 5 5 5 4 4 3 4 5 5 6 8 9 9 9 9 8 8
5 7 5 4 4 2 3 5 3 3 3 3 3 3 3 2 2 3 3 2 2 4 4 3 2 1 0 2 5 6 9 12 9 8 6 6 5 8 7 4 2 2 4 4 6 6 7 9 10 11 10 10 9 8
5 8 5 6 4 5 6 5 5 5 3 3 3 3 3 2 2 3 2 1 1 2 4 6 5 5 2 2 2 5 8 13 10 9 9 3 6 10 5 3 3 2 2 7 8 9 11 14 14 13 13 13 13 11
6 4 3 1 3 3 1 3 3 2 1 4 2 3 2 2 4 1 1 0 1 1 2 3 3 3 2 3 3 5 9 16 14 9 8 4 11 7 5 3 3 3 2 8 12 14 16 17 18 19 19 20 19 18
4 1 2 3 1 2 3 2 2 3 3 2 3 4 3 3 1 2 1 1 0 1 3 5 5 5 6 10 9 8 12 16 13 15 13 8 5 5 7 6 6 6 11 15 17 18 19 20 21 21 23 25 25 25
3 1 3 2 4 2 4 2 1 1 2 2 0 3 3 5 3 2 1 2 1 3 5 6 7 8 10 9 10 11 14 15 12 7 3 3 6 4 3 6 11 14 15 20 19 18 18 20 23 26 26 21 20 19
3 1 2 4 3 3 1 3 3 2 1 2 2 1 2 2 2 2 3 5 6 4 5 9 14 14 5 6 10 14 13 7 6 4 4 3 8 8 13 19 20 21 23 22 19 17 17 19 20 16 13 12 12 14
1 1 4 2 3 0 2 3 2 2 1 2 1 2 2 2 1 4 6 7 4 2 4 8 12 15 11 9 14 20 11 4 3 4 3 4 12 22 23 24 26 27 25 22 19 16 16 19 21 21 22 24 25 25
1 2 3 2 2 2 2 2 2 1 2 1 1 2 2 2 2 6 8 10 9 9 10 10 15 18 12 11 13 14 15 5 7 13 17 21 23 25 29 30 32 26 16 12 16 18 20 21 23 24 23 23 23 20
2 2 3 3 1 2 2 2 0 1 2 1 2 1 3 2 1 2 2 7 11 12 10 8 19 21 13 15 19 17 16 18 17 17 20 22 26 28 31 26 12 9 13 13 14 17 19 19 21 22 22 22 22 23
2 1 2 3 2 2 2 3 4 3 3 2 2 1 1 1 2 2 2 2 4 7 8 16 17 14 22 21 19 16 12 12 17 20 22 23 23 24 22 18 10 14 10 14 18 18 21 20 19 19 20 22 23 25
Wind_Direction
351 347 345 341 340 339 338 332 328 332 322 318 321 322 316 312 308 306 307 303 252 267 283 230 212 250 244 215 255 144 156 185 184 199 206 200 218 214 245 233 186 186 188 192 196 233 255 10 285 239 112 24 343 333
349 344 342 338 335 335 338 335 335 333 323 312 314 312 303 302 301 278 255 255 245 217 265 295 277 260 249 247 226 195 274 168 197 184 207 204 224 234 239 250 157 215 224 203 212 226 19 4 24 39 27 359 290 283
344 343 341 338 336 337 336 333 329 335 324 318 313 303 296 297 285 266 252 253 246 262 271 251 257 260 275 257 253 256 197 178 195 226 181 208 229 178 198 227 171 215 165 253 272 229 260 311 322 244 199 239 273 273
347 343 341 337 336 333 332 330 325 323 319 317 311 306 303 297 294 281 238 256 221 271 271 267 258 252 275 268 250 237 166 151 141 183 211 208 231 200 219 356 245 88 163 224 251 287 281 282 346 356 329 291 258 215
349 345 341 337 334 330 328 327 325 323 321 316 313 311 303 297 296 285 260 260 236 217 292 291 267 335 313 305 269 248 217 181 177 175 217 216 194 186 145 209 217 185 227 210 264 38 321 309 355 358 331 337 351 350
349 348 343 341 335 331 325 322 320 317 316 311 309 306 300 305 294 226 315 217 198 211 266 290 43 355 348 354 313 264 233 217 210 200 200 215 69 217 229 230 69 26 360 357 319 325 270 288 323 19 337 345 344 335
349 346 344 339 334 330 326 322 317 311 309 308 305 299 299 290 248 189 208 165 171 163 251 287 263 37 330 302 307 326 291 254 250 209 223 181 191 206 258 213 6 346 321 305 22 331 283 44 328 324 318 320 319 308
351 348 345 338 334 333 338 340 331 322 311 307 306 305 291 285 223 211 197 191 203 185 189 275 279 246 6 326 302 348 347 276 227 304 135 214 135 273 88 346 341 345 333 112 351 335 270 295 308 343 341 345 344 349
348 346 343 340 337 331 332 331 329 328 320 312 312 282 273 209 135 80 65 87 216 232 240 227 266 293 11 325 278 280 337 221 7 290 19 237 80 66 357 325 333 344 341 307 319 312 348 357 352 354 349 354 354 339
347 342 338 340 335 332 328 326 327 320 321 307 211 126 201 97 55 239 70 72 247 66 245 251 142 281 325 323 344 302 357 305 237 76 331 41 81 120 9 336 321 327 328 321 328 352 347 347 351 343 338 328 321 317
344 339 339 338 337 334 332 328 323 314 288 315 192 195 119 154 88 29 150 185 331 245 208 251 206 288 135 297 336 325 328 325 263 78 272 96 85 6 353 353 350 341 342 343 286 292 288 290 309 323 333 339 335 336
341 339 338 339 341 342 342 341 342 329 246 204 160 114 109 44 61 135 228 257 203 239 176 209 182 242 315 272 272 354 298 325 32 6 32 83 47 360 353 349 351 358 1 11 14 359 356 358 352 333 323 335 342 345
338 338 338 339 344 348 3 359 352 355 226 150 67 77 14 21 36 190 217 227 253 185 181 176 171 215 184 228 314 291 274 13 276 42 69 59 5 4 360 355 360 6 14 23 26 31 26 15 12 7 356 3 9 14
338 336 335 338 349 347 353 350 332 326 312 328 19 290 186 235 247 208 231 315 38 107 152 140 108 219 197 135 8 299 31 273 76 99 82 39 9 357 357 2 11 8 14 25 25 27 31 26 21 23 22 15 17 29
338 335 332 338 341 340 337 332 324 322 287 276 183 246 224 243 245 251 198 159 192 154 132 114 89 299 59 107 31 116 114 88 32 89 83 27 11 357 359 5 13 15 13 22 22 27 27 23 24 31 25 28 33 34
336 331 333 335 338 337 331 324 305 215 231 233 240 277 209 256 251 222 211 205 171 145 119 64 113 105 169 142 154 123 192 169 109 67 51 13 16 8 2 9 24 24 30 29 28 29 31 26 22 19 31 32 33 36
335 297 324 332 331 329 327 306 262 229 245 219 285 323 307 344 12 25 15 9 326 216 198 145 177 198 109 89 108 15 47 50 44 64 44 22 6 360 6 24 31 36 42 37 33 30 29 28 34 33 28 17 30 38
320 326 329 333 341 343 308 328 297 306 324 12 359 18 62 26 346 25 348 351 336 358 185 61 82 70 33 88 89 50 47 37 53 46 36 13 10 13 25 35 40 42 46 46 45 40 32 28 31 23 18 13 24 29
323 322 328 338 344 304 302 15 17 355 23 359 61 47 66 89 70 20 355 342 6 22 39 39 57 46 53 38 32 32 15 3 359 32 44 29 27 24 24 28 37 43 48 46 48 50 45 38 28 17 15 16 19 17
323 326 347 337 352 297 3 25 12 38 32 11 19 32 59 47 3 15 20 13 28 44 43 39 44 33 25 15 359 359 352 338 315 337 72 36 25 28 27 22 20 21 36 36 37 51 40 34 26 15 10 15 13 2
334 341 349 12 32 55 78 4 33 36 349 62 341 30 43 43 33 17 13 360 57 31 56 44 50 57 51 46 28 18 26 25 20 18 3 333 9 12 10 9 11 29 37 29 28 20 30 18 3 5 2 4 355 350
332 344 11 24 55 46 76 26 357 328 47 36 47 37 34 27 14 14 348 39 53 29 23 27 48 70 66 44 34 33 21 24 23 15 16 15 7 4 3 360 3 18 44 40 32 22 9 355 357 12 7 353 360 358
4 28 51 19 64 38 292 356 54 5 49 8 29 41 21 39 9 354 72 57 79 34 53 64 75 81 80 64 51 40 29 16 5 358 352 350 343 355 339 349 7 14 29 27 9 4 358 358 360 358 355 357 352 351
26 51 44 48 34 352 343 18 10 16 27 29 36 29 16 14 19 52 72 64 27 11 28 10 297 286 114 40 29 23 12 7 356 351 349 344 349 343 333 315 339 29 28 5 360 356 357 350 346 347 345 341 336 330
69 352 51 358 346 38 29 8 353 27 35 341 55 6 3 8 64 58 70 87 42 29 15 17 40 41 22 341 359 10 7 6 351 327 332 312 340 340 347 329 293 266 330 1 360 343 340 341 339 336 332 330 318 304
70 317 58 237 331 68 356 44 21 330 14 23 5 306 4 75 62 72 123 73 66 28 10 13 356 339 343 351 308 327 339 341 335 319 319 280 319 309 296 308 315 305 288 339 332 326 322 324 321 319 315 317 316 315
92 307 338 35 185 101 60 29 25 77 62 21 315 351 37 68 135 222 148 38 114 356 325 320 320 308 298 315 315 317 328 335 327 308 310 311 310 293 269 272 282 305 312 320 315 310 305 305 305 306 301 302 303 306
138 130 123 289 62 20 120 56 64 144 245 258 349 35 140 171 192 212 182 135 56 62 61 38 7 340 326 328 325 321 328 332 341 336 335 333 344 327 321 309 312 309 305 304 309 304 299 300 300 296 289 287 292 299
72 23 99 46 34 41 150 154 204 231 205 130 129 209 243 242 242 206 170 150 131 92 38 16 12 1 334 335 343 336 333 327 3 23 2 320 331 329 323 318 317 318 323 322 314 306 302 300 296 312 334 322 312 306
299 357 92 82 96 315 251 169 203 251 216 196 263 300 287 271 246 193 191 197 215 253 345 347 349 348 334 328 338 346 352 311 271 286 239 276 298 314 316 316 317 319 320 314 310 313 311 307 304 303 306 308 311 313
87 70 75 64 143 245 231 311 300 229 27 8 349 169 240 292 266 228 228 236 248 268 296 320 337 344 335 320 323 329 324 313 295 305 306 307 311 312 313 312 311 313 311 308 305 302 305 305 305 307 308 307 309 308
35 95 127 106 247 289 30 67 55 76 335 31 304 340 341 36 290 285 248 238 250 266 286 310 333 326 326 319 315 308 295 292 298 304 306 308 309 311 307 310 308 313 304 295 293 301 304 301 301 301 301 302 304 306
62 64 55 85 43 12 324 76 26 359 21 30 320 247 234 198 231 288 285 286 287 294 298 325 321 319 324 321 316 311 303 302 307 307 305 307 308 309 317 309 317 330 314 310 315 312 310 309 303 301 299 300 303 304